Regional Weather Roundup
Issued by NWS

Home | Current Version | Previous Version | Text Only | Print | Product List | Glossary On
Versions: 1 2 3 4 5 6 7 8 9 10 11 12 13 14 15 16 17 18 19 20 21 22 23 24 25 26 27 28 29 30 31 32 33 34 35 36 37 38 39 40 41 42 43 44 45 46 47 48 49 50
000
ASUS43 KDMX 262208
RWRIA

WEATHER ROUNDUP FOR IOWA
NATIONAL WEATHER SERVICE DES MOINES IA
500 PM CDT TUE JUL 26 2016

NOTE: "FAIR" INDICATES FEW OR NO CLOUDS BELOW 12,000 FEET WITH NO
SIGNIFICANT WEATHER AND/OR OBSTRUCTIONS TO VISIBILITY.

* - THESE STATIONS ARE NOT NWS STATIONS...THUS NOT UNDER NWS
QUALITY CONTROL.  THEY ALSO DO NOT REPORT WEATHER SUCH
AS PRECIPITATION OR FOG.

IAZ001>003-012>014-020>022-031>034-043>046-262300-
   NORTHWEST IOWA

CITY           SKY/WX    TMP DP  RH WIND       PRES   REMARKS
CARROLL *      SUNNY     82  66  57 VRB3      30.04S HX  85
CHEROKEE *     SUNNY     86  66  50 S7        30.04S HX  88
DENISON *      MOSUNNY   82  66  57 E5        30.02S HX  85
LE MARS *      SUNNY     86  66  51 S10       30.02F HX  88
SHELDON *      SUNNY     84  68  58 S7        30.03F HX  87
SIOUX CITY     SUNNY     88  64  44 SE13      30.01S HX  89
SPENCER        MOSUNNY   86  67  52 S7        30.05S HX  89
STORM LAKE *   SUNNY     84  68  58 VRB5      30.06S HX  87
$$

IAZ055>058-069>071-079>083-090>094-262300-
   SOUTHWEST IOWA

CITY           SKY/WX    TMP DP  RH WIND       PRES   REMARKS
ATLANTIC *     PTSUNNY   84  66  54 E7        30.02S HX  86
CLARINDA *       N/A     86  68  54 MISG      30.02F HX  89
COUNCIL BLFS * SUNNY     84  68  58 E8        30.02F HX  87
CRESTON *      MOSUNNY   84  68  58 E6        30.04S HX  87
HARLAN  *      MOSUNNY   82  66  57 SE5       30.06S HX  85
LAMONI         SUNNY     84  66  54 NE6       30.01F HX  86
RED OAK *      SUNNY     86  68  54 VRB5      30.01F HX  89
SHENANDOAH *   SUNNY     86  68  54 SE6       30.01F HX  89
$$

IAZ047>049-059>061-072>074-084-262300-
   CENTRAL IOWA

CITY           SKY/WX    TMP DP  RH WIND       PRES   REMARKS
AMES           MOSUNNY   84  68  58 SE6       30.03S HX  87
ANKENY *         N/A    N/A N/A N/A MISG        N/A
BOONE *        MOSUNNY   84  66  54 E7        30.03S HX  86
CHARITON *       N/A    N/A N/A N/A MISG        N/A
DES MOINES     MOSUNNY   86  63  45 SE12      30.01F HX  87
GRINNELL*      SUNNY     83  64  52 E3        30.03F HX  84
KNOXVILLE *    MOSUNNY   82  64  54 NE5       30.01S HX  84
MARSHALLTOWN   MOSUNNY   84  67  56 NE6       30.03S HX  86
NEWTON *       MOSUNNY   84  64  51 CALM      30.02S HX  86
PELLA *        SUNNY     84  62  47 CALM      30.03S HX  85
PERRY *          N/A     85  67  55 E3        30.03S HX  87
$$

IAZ004>006-015-016-023>025-035-036-262300-
   NORTH CENTRAL IOWA

CITY           SKY/WX    TMP DP  RH WIND       PRES   REMARKS
ALGONA *       MOSUNNY   82  68  61 S5        30.06S HX  85
ESTHERVILLE    SUNNY     83  69  62 S8        30.05S HX  86
FORT DODGE *   MOSUNNY   84  68  58 SE6       30.05S HX  87
MASON CITY     MOSUNNY   85  65  51 CALM      30.07R HX  86
FOREST CITY *    N/A     82  64  54 S3        30.06S HX  84
IOWA FALLS *     N/A     85  65  51 SE5       30.06S HX  87
$$

IAZ007>011-017>019-026>030-037>042-050>054-066-262300-
   NORTHEAST IOWA

CITY           SKY/WX    TMP DP  RH WIND       PRES   REMARKS
CEDAR RAPIDS   SUNNY     83  66  56 E3        30.02F HX  85
CHARLES CITY * PTSUNNY   84  68  58 CALM      30.05S HX  87
CLINTON *      MOSUNNY   85  65  51 NE7       30.01F HX  86
DECORAH *      MOSUNNY   84  66  54 SE3       30.03F HX  86
DUBUQUE        SUNNY     85  63  47 N5        30.04F HX  86
MONTICELLO *   MOSUNNY   84  64  51 CALM      30.03R HX  86
OELWEIN *      PTSUNNY   81  64  57 CALM      30.05S HX  82
WATERLOO       SUNNY     85  64  49 VRB6      30.02S HX  86
$$

IAZ064-065-067-068-078-262300-
   EAST CENTRAL IOWA

CITY           SKY/WX    TMP DP  RH WIND       PRES   REMARKS
DAVENPORT      SUNNY     85  63  47 E7        30.01F HX  86
IOWA CITY      SUNNY     85  65  51 VRB3      30.02F HX  86
MT. PLEASANT * MOSUNNY   87  67  50 E5        30.00F HX  89
MUSCATINE *    MOSUNNY   86  63  45 NE6G13    30.00F HX  87
QUAD CITIES    SUNNY     87  65  47 E6        29.99F HX  89
$$

IAZ062-063-075>077-085>089-095>099-262300-
   SOUTHEAST IOWA

CITY           SKY/WX    TMP DP  RH WIND       PRES   REMARKS
BURLINGTON     SUNNY     85  66  53 VRB5      29.99F HX  87
FAIRFIELD *    MOSUNNY   84  66  54 VRB5      30.01S HX  86
KEOKUK *       SUNNY     84  66  54 E6        29.99F HX  86
CENTERVILLE *    N/A     82  66  57 CALM      30.03S HX  85
OTTUMWA        MOSUNNY   84  63  49 NE5       30.00F HX  85
WASHINGTON *   SUNNY     82  70  65 E6        30.02F HX  86
$$

ABBREVIATIONS USED IN REMARKS
   TC - TEMPERATURES IN CELSIUS
  WCI - WIND CHILL INDEX
   HX - HEAT INDEX
  VSB - VISIBILITY
$$





USA.gov is the U.S. government's official web portal to all federal, state and local government web resources and services.